Regional Weather Roundup
Issued by NWS

Home | Current Version | Previous Version | Graphics & Text | Print | Product List | Glossary On
Versions: 1 2 3 4 5 6 7 8 9 10 11 12 13 14 15 16 17 18 19 20 21 22 23 24 25 26 27 28 29 30 31 32 33 34 35 36 37 38 39 40 41 42 43 44 45 46 47 48 49 50
000
ASUS43 KLOT 260608
RWRIL

ILLINOIS REGIONAL WEATHER ROUNDUP
NATIONAL WEATHER SERVICE CHICAGO/ROMEOVILLE IL
100 AM CDT TUE JUL 26 2016

NOTE: "FAIR" INDICATES FEW OR NO CLOUDS BELOW 12,000 FEET WITH NO
SIGNIFICANT WEATHER AND/OR OBSTRUCTIONS TO VISIBILITY.

* THESE STATIONS ARE NOT UNDER NWS QUALITY CONTROL. THEY ALSO MAY NOT
  REPORT WEATHER SUCH AS PRECIPITATION OR FOG.

ILZ001-002-007-009-015-016-024-260700-
NORTHWEST ILLINOIS

CITY           SKY/WX    TMP DP  RH WIND       PRES   REMARKS
MOLINE         CLOUDY    69  65  86 CALM      30.04S
6HR MIN TEMP:  68; 6HR MAX TEMP:  84;

STERLING*      CLEAR     68  66  93 CALM      30.05
SAVANNA*       PTCLDY    67  66  96 CALM      30.04F
$$

ILZ003-004-008-010-011-017-018-260700-
NORTH CENTRAL ILLINOIS

CITY           SKY/WX    TMP DP  RH WIND       PRES   REMARKS
ROCKFORD       PTCLDY    75  65  70 CALM      30.05S
6HR MIN TEMP:  75; 6HR MAX TEMP:  84;

FREEPORT*      CLEAR     64  63  94 CALM      30.07S
ROCHELLE*      CLEAR     65  64  97 CALM      30.05S
DE KALB*       CLEAR     70  65  85 N3        30.06R
$$

ILZ005-006-012>014-019>023-260700-
NORTHEAST ILLINOIS

CITY           SKY/WX    TMP DP  RH WIND       PRES   REMARKS
CHICAGO-OHARE  CLOUDY    74  64  71 E3        30.03R
6HR MIN TEMP:  74; 6HR MAX TEMP:  84;

CHICAGO-MIDWAY CLOUDY    78  62  57 E3        30.03R HX  80
6HR MIN TEMP:  78; 6HR MAX TEMP:  83;

AURORA         CLOUDY    69  66  90 CALM      30.04R
6HR MIN TEMP:  68; 6HR MAX TEMP:  83;

LANSING*       CLOUDY    71  65  81 CALM      30.03S
JOLIET*        CLOUDY    72  70  94 CALM      30.03R
WAUKEGAN       PTCLDY    67  63  87 CALM      30.03R
6HR MIN TEMP:  66; 6HR MAX TEMP:  79;

DUPAGE AIRPORT CLOUDY    70  64  81 NE3       30.04R
6HR MIN TEMP:  69; 6HR MAX TEMP:  83;

KANKAKEE*      PTCLDY    69  68  95 CALM      30.04S
WHEELING       PTCLDY    72  65  78 CALM      30.04R
6HR MIN TEMP:  72; 6HR MAX TEMP:  82;

MORRIS*        CLOUDY    69  67  93 CALM      30.02S
ROMEOVILLE*    CLOUDY    69  64  83 NE3       30.03S
NORTHERLY ISL    N/A     72  65  78 CALM        N/A
$$

LMZ740>746-260700-
SOUTHERN LAKE MICHIGAN

STATION/POSITION SKY/WX   TEMP    WIND        PRES    VSBY  WAVE
                          AIR SEA DIR/SP/G                  HT/PER
                          (F)     (DEG/KT/KT) (MB)    (MI)  (FT/S)
SOUTHERN BUOY              73 73  240/  4/  6 1016.1R         0
WILMETTE HARBOR            69 68  340/  2/  2   N/A           0
HARRISON CRIB              76     150/  3/  4   N/A
BURNHAM HARBOR             72        CALM       N/A
CALUMET HARBOR             74     110/  3/  3 1016.1R
BURNS HARBOR               78     110/  4/  7 1017.3R
MICHIGAN CITY              74     130/  4/  5   N/A
MICHIGAN CITY 6N           75 75  160/  2/  4   N/A           1
ST. JOSEPH                 74 75  220/  4/  4 1016.5R         1/ 3
$$

ILZ025>027-034>036-040-047-049-050-058-095>099-260700-
WEST-CENTRAL ILLINOIS

CITY           SKY/WX    TMP DP  RH WIND       PRES   REMARKS
QUINCY         PTCLDY    72  68  87 CALM      30.04F
GALESBURG*     PTCLDY    67  66  96 CALM      30.05F
MACOMB*        PTCLDY    67  66  97 NW5       30.06F
JACKSONVILLE*  CLOUDY    71  70  95 CALM      30.03F
PITTSFIELD*    MOCLDY    71  70  95 CALM      30.05F
$$

ILZ028>032-037-038-041>044-048-051>054-059>061-260700-
CENTRAL ILLINOIS

CITY           SKY/WX    TMP DP  RH WIND       PRES   REMARKS
BLOOMINGTON    MOCLDY    72  68  87 CALM      30.05S
DECATUR        PTCLDY    73  70  90 NE5       30.03S
PEORIA         PTCLDY    72  69  90 CALM      30.04S
6HR MIN TEMP:  71; 6HR MAX TEMP:  82;

LACON*         PTCLDY    69  67  94 CALM      30.03S
LINCOLN*       PTCLDY    71  71  98 CALM      30.03F
SPRINGFIELD    CLOUDY    73  70  90 CALM      30.03F
6HR MIN TEMP:  73; 6HR MAX TEMP:  84;

TAYLORVILLE    CLOUDY    72  71  99 MISG      30.02F
6HR MIN TEMP:  72; 6HR MAX TEMP:  80;

$$

ILZ033-039-045-046-055>057-062-063-260700-
EAST-CENTRAL ILLINOIS

CITY           SKY/WX    TMP DP  RH WIND       PRES   REMARKS
CHAMPAIGN      CLOUDY    74  70  87 NE3       30.03F
MATTOON        MOCLDY    74  72  93 CALM      30.02R
PARIS*         MOCLDY    74  74  98 CALM      30.03S
$$

ILZ079-100>102-260700-
SOUTHWEST ILLINOIS

CITY           SKY/WX    TMP DP  RH WIND       PRES   REMARKS
ALTON          CLOUDY    75  74  95 CALM      30.02S
BELLEVILLE     CLOUDY    77  77 100 NE3       29.99F
CAHOKIA*       LGT RAIN  78  75  90 CALM      30.01S HX  81
SPARTA*        CLOUDY    77  76  96 N3        30.01F
$$

ILZ064>066-069>071-074>076-080>082-084>086-088>090-092>094-260700-
SOUTH-CENTRAL ILLINOIS

CITY           SKY/WX    TMP DP  RH WIND       PRES   REMARKS
CARBONDALE     CLEAR     76  74  93 NW3       29.99F FOG
6HR MIN TEMP:  76; 6HR MAX TEMP:  81;

CAIRO*         MOCLDY    74  74 100 CALM      29.99S FOG
EFFINGHAM*     CLOUDY    76  76 100 CALM      30.02F
MARION         FOG       75  75 100 CALM      30.01S VSB 1/2
MT. VERNON     MOCLDY    73  70  88 CALM      29.99F VSB 1/2
CENTRALIA*     CLOUDY    77  77 100 CALM      30.00S FOG
SALEM*         CLOUDY    76  74  93 CALM      30.00F FOG
METROPOLIS*    CLOUDY    76  75  97 CALM      30.00S FOG
$$

ILZ067-068-072-073-078-083-087-091-260700-
SOUTHEAST ILLINOIS

CITY           SKY/WX    TMP DP  RH WIND       PRES   REMARKS
LAWRENCEVILLE  MOCLDY    77  76  96 CALM      30.01S
FLORA*         MOCLDY    76  75  97 CALM      30.00F FOG
FAIRFIELD*     PTCLDY    74  74 100 CALM      29.99F FOG
HARRISBURG*    CLOUDY    74  74 100 CALM      30.00F FOG
ROBINSON*      FOG       74  74 100 CALM      30.02S VSB 1
CARMI*         PTCLDY    74  74 100 CALM      29.99F FOG
$$

ABBREVIATIONS USED IN REMARKS
   TC - TEMPERATURE IN CELSIUS
  WCI - WIND CHILL INDEX
   HX - HEAT INDEX
  VSB - VISIBILITY
$$





USA.gov is the U.S. government's official web portal to all federal, state and local government web resources and services.